Regional Weather Roundup
Issued by NWS

Home | Current Version | Previous Version | Text Only | Print | Product List | Glossary Off
Versions: 1 2 3 4 5 6 7 8 9 10 11 12 13 14 15 16 17 18 19 20 21 22 23 24 25 26 27 28 29 30 31 32 33 34 35 36 37 38 39 40 41 42 43 44 45 46 47 48 49 50

000
ASUS45 KBOI 082010
RWRID

IDAHO REGIONAL WEATHER ROUNDUP
NATIONAL WEATHER SERVICE BOISE ID
100 PM MST THU DEC 08 2016

NOTE: "FAIR" INDICATES FEW OR NO CLOUDS BELOW 12000 FEET
WITH NO SIGNIFICANT WEATHER AND/OR OBSTRUCTIONS TO VISIBILITY

IDZ012-014-082100-
SOUTHWEST IDAHO


CITY           SKY/WX    TMP DP  RH WIND       PRES   REMARKS
BOISE          LGT SNOW  23  20  88 SE3       30.17F VSB 1
CALDWELL       LGT SNOW  24  20  84 SE13      30.20F FOG     WCI  12
MOUNTAIN HOME  SNOW      23  19  86 SE21      30.17F VSB 1/2 WCI   8
$$

IDZ016-017-082100-
SOUTHCENTRAL IDAHO


CITY           SKY/WX    TMP DP  RH WIND       PRES   REMARKS
BURLEY         LGT SNOW  17  13  84 E14       30.15F VSB 3/4 WCI   3
JEROME         LGT SNOW  19  14  81 NE24G30   30.14F WCI   2
TWIN FALLS     LGT SNOW  18  15  88 E13       30.14F FOG     WCI   5
$$

IDZ019>023-082100-
SOUTHEAST IDAHO


CITY           SKY/WX    TMP DP  RH WIND       PRES   REMARKS
IDAHO FALLS    CLOUDY    19   6  57 N3        30.21F
POCATELLO      CLOUDY    16   8  71 NE7       30.21F WCI   6
REXBURG        CLOUDY    11   1  64 NE8       30.21F WCI  -1
$$

IDZ006-010-011-018-031-032-082100-
CENTRAL IDAHO MOUNTAINS


CITY           SKY/WX    TMP DP  RH WIND       PRES   REMARKS
MCCALL         CLOUDY     8   4  83 S6        30.04F WCI  -2
HAILEY         CLOUDY    18   3  53 NW8       30.13F WCI   7
STANLEY          N/A     -5 -11  75 CALM      30.07F
SALMON         CLOUDY     9   1  72 CALM      30.24F
CHALLIS        CLOUDY     9   0  67 SE3       30.17F
$$

IDZ002-004-006-007-026-082100-
NORTHERN IDAHO


CITY           SKY/WX    TMP DP  RH WIND       PRES   REMARKS
LEWISTON       NOT AVBL
LOWELL           N/A     26  10  50 CALM      30.29F
COEUR D`ALENE  SUNNY     22   8  55 N20       30.24F WCI   7
MULLAN PASS    CLOUDY     2  -2  83 SE6       29.99F FOG     WCI  -9
$$



USA.gov is the U.S. government's official web portal to all federal, state and local government web resources and services.